Regional Weather Roundup
Issued by NWS Columbia, SC

Home | Current Version | Previous Version | Text Only | Print | Product List | Glossary On
Versions: 1 2 3 4 5 6 7 8 9 10 11 12 13 14 15 16 17 18 19 20 21 22 23 24 25 26 27 28 29 30 31 32 33 34 35 36 37 38 39 40 41 42 43 44 45 46 47 48 49 50
000
ASUS42 KCAE 301010
RWRCAE
REGIONAL WEATHER ROUNDUP
NATIONAL WEATHER SERVICE COLUMBIA SC
600 AM EDT SAT AUG 30 2014

NOTE: "FAIR" INDICATES FEW OR NO CLOUDS BELOW 12,000 FEET WITH NO
SIGNIFICANT WEATHER AND/OR OBSTRUCTIONS TO VISIBILITY.

NOT ALL STATIONS ARE QUALITY CONTROLLED BY THE NATIONAL
WEATHER SERVICE. USE DATA WITH CAUTION...ESPECIALLY
DEWPOINT OBSERVATIONS.

SCZ001>056-GAZ040-063>065-077-301100-
...UPSTATE SOUTH CAROLINA...

CITY           SKY/WX    TMP DP  RH WIND       PRES   REMARKS
ANDERSON       CLEAR     69  66  90 NE3       30.17R
LIBERTY        FAIR      70  32  24 MISG      30.17S
SPARTANBURG    FAIR      72 N/A N/A CALM      30.17S FOG
CLEMSON        CLEAR     73  68  84 CALM      30.18R
GREENVILLE     CLEAR     72  69  90 NE5       30.19R
GREENWOOD      CLEAR     67  63  87 CALM      30.17R
GREER          CLEAR     71  70  96 NE5       30.17S
ROCK HILL      CLEAR     68  68 100 CALM      30.18S FOG
LAURENS        FAIR      64 N/A N/A N3        30.18R


...CENTRAL SOUTH CAROLINA...

CITY           SKY/WX    TMP DP  RH WIND       PRES   REMARKS
COLUMBIA APT   PTCLDY    73  69  87 E3        30.15R
COLUMBIA OWENS MOCLDY    73  69  87 CALM      30.17R
DARLINGTON     CLOUDY    72  70  94 CALM      30.19R
FLORENCE       CLOUDY    72  70  93 CALM      30.17R
MCENTIRE ANGB  PTCLDY    69  69 100 CALM      30.16R
ORANGEBURG     PTCLDY    71  69  93 CALM      30.15S
SUMTER SHAW    FOG       73  73 100 NE2       30.15S VSB 1/2
NEWBERRY       FAIR      70  70 100 CALM      30.19R
AIKEN          FAIR      70  70 100 CALM      30.18S
BARNWELL       FAIR      72  70  94 CALM      30.15S
MANNING        CLOUDY    70 N/A N/A CALM      30.16R VSB 1/4
CAMDEN         FAIR      70  68  94 CALM      30.18R
LANCASTER      RAIN      68  68 100 NE3       30.18R VSB 1/2
WINNSBORO      PTSUNNY   72  70  94 SE5       30.17R


...EASTERN AND COASTAL SOUTH CAROLINA...

CITY           SKY/WX    TMP DP  RH WIND       PRES   REMARKS
MYRTLE BEACH   CLEAR     75  72  88 W3        30.16R
N MYRTLE BCH   PTCLDY    74  72  93 CALM      30.15R
CONWAY         FAIR      70  70 100 CALM      30.16R
MARION         FAIR      72  72 100 CALM      30.16R
HARTSVILLE     FAIR      72 N/A N/A CALM      30.18R
FLORENCE       CLOUDY    72  70  93 CALM      30.17R
DARLINGTON     CLOUDY    72  70  94 CALM      30.19R
CHARLESTON APT CLEAR     74  72  93 CALM      30.15R
MOUNT PLEASANT LGT RAIN  72  72 100 CALM      30.15R
WALTERBORO     SUNNY     70 N/A N/A CALM      30.15S
BEAUFORT       PTCLDY    75  73  93 CALM      30.13R FOG


...EASTERN GEORGIA...

CITY           SKY/WX    TMP DP  RH WIND       PRES   REMARKS
AUGUSTA BUSH F CLEAR     67  67 100 CALM      30.13S FOG
AUGUSTA DANIEL CLEAR     75  72  90 SE5       30.15R
THOMSON        CLEAR     73  73 100 CALM      30.18S
WASHINGTON     FAIR      73  73 100 CALM      30.14R
SYLVANIA       SUNNY     65  65 100 CALM      30.14S
STATESBORO     PTCLDY    70  70 100 CALM      30.13S
SAVANNAH       PTCLDY    75  72  90 NE3       30.13R


...SOUTHERN NORTH CAROLINA...

CITY           SKY/WX    TMP DP  RH WIND       PRES   REMARKS
CHARLOTTE      PTCLDY    69  67  93 CALM      30.19R
MONROE         CLEAR     69  67  93 CALM      30.18R FOG
WADESBORO      CLOUDY    71  69  93 CALM      30.18R FOG
ROCKINGHAM     CLOUDY    71  70  95 CALM      30.18R
RUTHERFORDTON  CLEAR     71  70  98 CALM      30.21S FOG
ASHEVILLE      MOCLDY    67  66  97 CALM      30.25R FOG

$$


USA.gov is the U.S. government's official web portal to all federal, state and local government web resources and services.